sat.trackr.live / text

‹ back to catalog

STARLINK-34694

NORAD 66189 · 2025-243N

PAYLOAD ACTIVE UNKNOWN

§ Identity

Operator
Country
US
Launch date
2025-10-26
Launch site
AFETR
Launch vehicle
Mass (kg)
RCS (m²)

Purposes: comms

External: N2YO · Heavens-Above · Gunter

§ Orbital elements

Epoch: 2026-09-20T04:03:48.435840Z

Period
93.85 min
Inclination
53.1606°
Eccentricity
0.0000921
Mean motion
15.34398256 rev/d
Perigee alt
462.1 km
Apogee alt
463.3 km
Semi-major
6,840.8 km
B*
4.8049e-4
RAAN
60.9144°
Arg perigee
92.5371°
Mean anomaly
267.5737°
Rev number
5,044

§ Raw data

STARLINK-346941 66189U 25243N   26263.16931060  .00015892  00000+0  48049-3 0  99932 66189  53.1606  60.9144 0000921  92.5371 267.5737 15.34398256 50442

JSON: /api/v1/satellites/66189 · /tle

For live sub-satellite position, see the globe view (requires WebGL).

§ Visibility from observer

Set your observer location to see the next 7 days of passes ≥ 10°. The values pass through the URL so the page stays shareable.

No JS? Fill the form by hand. The geolocation button needs JavaScript.